Location: Sungai Liu
(2.3667°N, 113.8667°E)
Time: 12:55:23
(UTC+00:00)

Meteor 1-27 - Pass Details

Date: 20 May 2022
Orbit: 837 x 893 km, 81.3° (Epoch: 04 July)

Event Time Altitude Azimuth Distance (km) Brightness Sun altitude
Rises 21:49:04 0° 348° (NNW) 3,439 7.5 -6.7°
Reaches altitude 10° 21:51:32 10° 345° (NNW) 2,496 6.7 -6.1°
Maximum altitude 21:57:06 61° 266° (W) 964 4.3 -4.8°
Drops below altitude 10° 22:02:37 10° 186° (S) 2,468 6.4 -3.5°
Sets 22:05:03 0° 182° (S) 3,399 7.1 -3.0°
